Simultaneous Nadir Overpasses (SNOs) Predictions

Prediction of SNOs between GOES-15 and METOP-B Satellite Orbit:

Table of predicted SNOs for the next 14.0 days since TLE Epoch: 4/20/2024
Index Date Time (GOES-15) GOES-15 Lat,Lon METOP-B Lat,Lon Distance(km) Time Diff (sec)
1 04/20/2024 05:03:49 -0.12, 61.32 -0.98, 65.17 437.97 80
2 04/21/2024 17:20:09 0.13, 61.30 -0.03, 60.56 84.12 80
3 04/22/2024 17:02:08 0.13, 61.31 1.07, 65.55 483.52 80
4 04/24/2024 05:18:19 -0.13, 61.37 -0.07, 60.98 43.42 80
5 04/26/2024 17:16:36 0.14, 61.37 0.14, 61.38 1.11 80
6 04/29/2024 05:17:25 -0.15, 61.47 -0.23, 61.81 39.19 80
7 04/30/2024 17:36:23 0.16, 61.46 -0.80, 57.21 484.51 80
8 05/01/2024 17:13:03 0.16, 61.49 0.34, 62.20 81.88 80
9 05/03/2024 05:31:51 -0.16, 61.57 0.73, 57.65 446.93 80
